Estación Meteorológica Peña el Pijo (Robertgarden) [ 11/14/19 11:51:20 CET ]

Fecha Hora Presion(HPa) Temp (°C) Humedad % Rocio (°C) Viento ( m/s) Direccion Lluvia 1Hora(mm) Lluvia 24H(mm) LLuvia Total(mm)
2019-Jun-23 01:09:00 1009.600 - - - - WSW     330.48
2019-Jun-23 02:09:10 1009.500 - - - - WSW     330.48
2019-Jun-23 03:10:51 1009.200 - - - - WSW     330.48
2019-Jun-23 04:11:22 1008.800 - - - - WSW     330.48
2019-Jun-23 05:09:19 1008.700 - - - - WSW     330.48
2019-Jun-23 06:08:57 1008.800 - - - - WSW     330.48
2019-Jun-23 07:09:29 1009.000 - - - - WSW     330.48
2019-Jun-23 08:09:22 1008.600 - - - - WSW     330.48
2019-Jun-23 09:09:43 1008.800 - - - - WSW     330.48
2019-Jun-23 10:09:31 1008.700 - - - - WSW     330.48
2019-Jun-23 11:09:33 1008.200 - - - - WSW     330.48
2019-Jun-23 12:09:19 1008.000 - - - - WSW     330.48
2019-Jun-23 13:09:10 1008.100 - - - - WSW     330.48
2019-Jun-23 14:09:01 1007.800 - - - - WSW     330.48
2019-Jun-23 15:08:56 1007.700 - - - - WSW     330.48
2019-Jun-23 16:08:46 1007.300 - - - - WSW     330.48
2019-Jun-23 17:09:14 1006.900 - - - - WSW     330.48
2019-Jun-23 18:09:16 1006.800 - - - - WSW     330.48
2019-Jun-23 19:09:24 1006.300 - - - - WSW     330.48
2019-Jun-23 20:09:08 1006.600 - - - - WSW     330.48
2019-Jun-23 21:09:13 1007.400 - - - - WSW     330.48
2019-Jun-23 22:09:12 1008.300 - - - - WSW     330.48
2019-Jun-23 23:09:21 1009.200 - - - - WSW     330.48

Temperatura Máxima:    Temperatura Mínima:
Presión Máxima:1009.600 Hpa    Presión Mínima:1006.300 Hpa


Volver